Simultaneous Nadir Overpasses (SNOs) Predictions

Prediction of SNOs between NOAA-15 and METOP-C Satellite Orbit:

Table of predicted SNOs for the next 14.0 days since TLE Epoch: 5/8/2020
Index Date (NOAA-15) Time (NOAA-15) Lat,Lon (NOAA-15) SZA (NOAA-15 ) Date (METOP-C) Time (METOP-C) Lat,Lon (METOP-C) SZA (METOP-C ) Distance(km) Time Diff (sec)
1 05/22/2020 12:35:00 -80.92,-153.41 117.80 05/22/2020 12:33:47 -80.92,-153.22 117.81 3.43 73
2 05/22/2020 13:25:27 80.92, 14.12 62.21 05/22/2020 13:24:27 80.92, 14.08 62.18 0.83 60
3 05/22/2020 14:16:03 -80.93,-178.85 117.82 05/22/2020 14:15:09 -80.92,-178.70 117.84 3.12 54
4 05/22/2020 15:06:30 80.93, -11.32 62.18 05/22/2020 15:05:49 80.91, -11.41 62.15 2.04 41
5 05/22/2020 15:57:05 -80.92, 156.08 117.82 05/22/2020 15:56:30 -80.93, 156.17 117.83 1.66 35
6 05/22/2020 16:47:32 80.92, -36.39 62.18 05/22/2020 16:47:10 80.92, -36.54 62.17 2.72 22
7 05/22/2020 17:38:08 -80.93, 130.64 117.85 05/22/2020 17:37:52 -80.92, 130.69 117.86 1.56 16
8 05/22/2020 18:28:35 80.92, -61.82 62.16 05/22/2020 18:28:31 80.94, -61.66 62.18 3.06 4
9 05/22/2020 19:19:10 -80.92, 105.57 117.85 05/22/2020 19:19:13 -80.93, 105.56 117.84 0.80 3




NCC Satellite Simultaneous Nadir Overpasses (SNOs) Prediction Service
